フィエチジョシュ彗星

C/2024 J2 ( Wierzchos )

English version
Home page
Updated on August 11, 2025

---------------------------------------------------------------------

・ プロフィール

発見日 2024年5月11日
発見光度 21.2等
発見者 Kacper W. Wierzchos (Mt. Lemmon Survey)

・ 写真集

・ 軌道要素

Epoch 2025 May 5.0 TT = JDT 2460800.5
T 2025 Mar. 19.78625 TT                                 Pike
q   1.8110620            (2000.0)            P               Q
z  +0.0067470      Peri.  143.15469     +0.80781228     +0.56878137
 +/-0.0000020      Node   189.05734     -0.21970722     +0.53406392
e   0.9877808      Incl.   79.29616     +0.54696257     -0.62551058
From 232 observations 2024 Mar. 12-2025 Aug. 5, mean residual 1".2.

・ 星図

・ 光度変化

        m1 = 9.5 + 5 logΔ + 12.5 log r

---------------------------------------------------------------------

軌道要素はM.P.E.C. 2025-P113に掲載されたものです。
星図はステラナビゲータ Ver.11 (アストロアーツ) で作成したものです。
光度グラフはComet for Windowsで作成したものです。

---------------------------------------------------------------------

Copyright(C) Seiichi Yoshida (comet@aerith.net). All rights reserved.